Weather in Pselets

Russia / Kursk Oblast     51°17′17″N   36°31′38″E
temp.,
°C
wind,
m/s
gust,
m/s
humid.,
%
clouds,
%
prec.,
mm/h
press.,
hPa
HPBL,
m
27 november, sat
sat2700:00−1sse5129163 0.0 1015289
03:00−1sse51496100 0.0 1013321
06:00+1sse61788100 0.0 1011442
09:00+2sse91987100 0.0 1008621
12:00+3se91991100 1.3 1005625
15:00+3s91995100 2.0 1004641
18:00+4s71694100 0.1 1004456
21:00+5s61296100 0.1 1004345
28 november, sun
sun2800:00+5s4109684 0.0 1005229
03:00+6ssw5894100 0.0 1005375
06:00+5ssw379872 0.0 1006186
09:00+4ssw349986 0.0 1008150
12:00+6ssw349184 0.0 1008281
15:00+6ssw348899 0.0 1009376
18:00+7sse578598 0.0 1010284
21:00+5se4109597 0.0 1009203
29 november, mon
mon2900:00+5sse41196100 0.0 1009234
03:00+6se4996100 0.0 1007200
06:00+7se41198100 1.6 1004289
09:00+8sse41098100 2.1 1002383
12:00+9sse61497100 0.7 999578
15:00+10s71489100 0.8 995723
18:00+10s81695100 2.9 991905
21:00+11s81690100 5.4 988794
30 november, tue
tue3000:00+11ssw10188598 6.0 9851078
03:00+7wsw101683100 6.3 9881168
06:00+4wsw101571100 0.0 9921073
09:00+3wsw101564100 0.0 9941291
12:00+4sw915605 0.0 9951167
15:00+3sw9156661 0.0 9941170
18:00+2sw9146793 0.0 9941310
21:00+1sw9157288 0.0 9941048
1 december, wed
wed100:00−1wsw8138796 0.1 9951091
03:00−1w81181100 0.3 997916
06:00−2w71277100 0.4 999869
09:00−2w7118299 0.4 1000875
12:00−1wsw7971100 0.1 1001938
15:00−1sw51094100 0.7 1000776
18:00−1sw5119693 1.1 1000720
21:000wsw61192100 1.3 1001630